Time,TemperatureF,DewpointF,PressureIn,WindDirection,WindDirectionDegrees,WindSpeedMPH,WindSpeedGustMPH,Humidity,HourlyPrecipIn,Conditions,Clouds,dailyrainin,SolarRadiationWatts/m^2,SoftwareType,DateUTC
2013-02-06 00:02:00,26.0,23.0,-100.00,NE,46,0.0,2.0,87,0.00,,,0.00,1.000000,,2013-02-06 00:02:00,
2013-02-06 00:32:00,26.0,23.0,-100.00,East,96,0.0,3.0,90,0.00,,,0.00,0.000000,,2013-02-06 00:32:00,
2013-02-06 00:42:00,26.0,23.0,-100.00,East,96,0.0,3.0,90,0.00,,,0.00,0.000000,,2013-02-06 00:42:00,
2013-02-06 00:52:00,26.0,23.0,-100.00,East,96,0.0,3.0,90,0.00,,,0.00,0.000000,,2013-02-06 00:52:00,
2013-02-06 01:02:00,26.0,23.0,-100.00,East,96,0.0,3.0,90,0.00,,,0.00,0.000000,,2013-02-06 01:02:00,
2013-02-06 01:33:00,26.0,24.0,-100.00,NNE,26,0.0,1.0,91,0.00,,,0.00,0.000000,,2013-02-06 01:33:00,
2013-02-06 01:42:00,26.0,24.0,-100.00,NNE,26,0.0,1.0,91,0.00,,,0.00,0.000000,,2013-02-06 01:42:00,
2013-02-06 01:53:00,26.0,24.0,-100.00,NNE,26,0.0,1.0,91,0.00,,,0.00,0.000000,,2013-02-06 01:53:00,
2013-02-06 02:02:00,26.0,24.0,-100.00,NNE,26,0.0,1.0,91,0.00,,,0.00,0.000000,,2013-02-06 02:02:00,
2013-02-06 02:32:00,26.0,24.0,-100.00,North,356,0.0,2.0,92,0.00,,,0.00,0.000000,,2013-02-06 02:32:00,
2013-02-06 02:42:00,26.0,24.0,-100.00,North,356,0.0,2.0,92,0.00,,,0.00,0.000000,,2013-02-06 02:42:00,
2013-02-06 02:53:00,26.0,24.0,-100.00,North,356,0.0,2.0,92,0.00,,,0.00,0.000000,,2013-02-06 02:53:00,
2013-02-06 03:03:00,26.0,24.0,-100.00,North,356,0.0,2.0,92,0.00,,,0.00,0.000000,,2013-02-06 03:03:00,
2013-02-06 03:33:00,27.0,25.0,-100.00,NNW,331,0.0,2.0,92,0.00,,,0.00,0.000000,,2013-02-06 03:33:00,
2013-02-06 03:42:00,27.0,25.0,-100.00,NNW,331,0.0,2.0,92,0.00,,,0.00,0.000000,,2013-02-06 03:42:00,
2013-02-06 03:53:00,27.0,25.0,-100.00,NNW,331,0.0,2.0,92,0.00,,,0.00,0.000000,,2013-02-06 03:53:00,
2013-02-06 04:02:00,27.0,25.0,-100.00,NNW,331,0.0,2.0,92,0.00,,,0.00,0.000000,,2013-02-06 04:02:00,
2013-02-06 04:32:00,27.0,25.0,-100.00,ENE,63,0.0,2.0,92,0.00,,,0.00,0.000000,,2013-02-06 04:32:00,
2013-02-06 04:42:00,27.0,25.0,-100.00,ENE,63,0.0,2.0,92,0.00,,,0.00,0.000000,,2013-02-06 04:42:00,
2013-02-06 04:52:00,27.0,25.0,-100.00,ENE,63,0.0,2.0,92,0.00,,,0.00,0.000000,,2013-02-06 04:52:00,
2013-02-06 05:02:00,27.0,25.0,-100.00,ENE,63,0.0,2.0,92,0.00,,,0.00,0.000000,,2013-02-06 05:02:00,
2013-02-06 05:32:00,27.0,25.0,-100.00,ESE,109,0.0,2.0,92,0.00,,,0.00,0.000000,,2013-02-06 05:32:00,
2013-02-06 05:42:00,27.0,25.0,-100.00,ESE,109,0.0,2.0,92,0.00,,,0.00,0.000000,,2013-02-06 05:42:00,
2013-02-06 05:53:00,27.0,25.0,-100.00,ESE,109,0.0,2.0,92,0.00,,,0.00,0.000000,,2013-02-06 05:53:00,
2013-02-06 06:01:00,27.0,25.0,-100.00,ESE,109,0.0,2.0,92,0.00,,,0.00,0.000000,,2013-02-06 06:01:00,
2013-02-06 06:32:00,27.0,25.0,-100.00,ESE,121,1.0,2.0,92,0.00,,,-99.99,0.000000,,2013-02-06 06:32:00,
2013-02-06 06:42:00,27.0,25.0,-100.00,ESE,121,1.0,2.0,92,0.00,,,-99.99,0.000000,,2013-02-06 06:42:00,
2013-02-06 06:52:00,27.0,25.0,-100.00,ESE,121,1.0,2.0,92,0.00,,,-99.99,0.000000,,2013-02-06 06:52:00,
2013-02-06 07:02:00,27.0,25.0,-100.00,ESE,121,1.0,2.0,92,0.00,,,-99.99,0.000000,,2013-02-06 07:02:00,
2013-02-06 07:32:00,27.0,25.0,-100.00,NE,48,0.0,2.0,92,0.00,,,0.00,0.000000,,2013-02-06 07:32:00,
2013-02-06 07:42:00,27.0,25.0,-100.00,NE,48,0.0,2.0,92,0.00,,,0.00,0.000000,,2013-02-06 07:42:00,
2013-02-06 07:52:00,27.0,25.0,-100.00,NE,48,0.0,2.0,92,0.00,,,0.00,0.000000,,2013-02-06 07:52:00,
2013-02-06 08:01:00,27.0,25.0,-100.00,NE,48,0.0,2.0,92,0.00,,,0.00,0.000000,,2013-02-06 08:01:00,
2013-02-06 08:32:00,27.0,25.0,-100.00,SSW,205,0.0,0.0,93,0.00,,,0.00,0.000000,,2013-02-06 08:32:00,
2013-02-06 08:42:00,27.0,25.0,-100.00,SSW,205,0.0,0.0,93,0.00,,,0.00,0.000000,,2013-02-06 08:42:00,
2013-02-06 08:53:00,27.0,25.0,-100.00,SSW,205,0.0,0.0,93,0.00,,,0.00,0.000000,,2013-02-06 08:53:00,
2013-02-06 09:02:00,27.0,25.0,-100.00,SSW,205,0.0,0.0,93,0.00,,,0.00,0.000000,,2013-02-06 09:02:00,
2013-02-06 09:32:00,26.0,24.0,-100.00,West,262,2.0,4.0,92,0.00,,,0.00,0.000000,,2013-02-06 09:32:00,
2013-02-06 09:42:00,26.0,24.0,-100.00,West,262,2.0,4.0,92,0.00,,,0.00,0.000000,,2013-02-06 09:42:00,
2013-02-06 09:52:00,26.0,24.0,-100.00,West,262,2.0,4.0,92,0.00,,,0.00,0.000000,,2013-02-06 09:52:00,
2013-02-06 10:01:00,26.0,24.0,-100.00,West,262,2.0,4.0,92,0.00,,,0.00,0.000000,,2013-02-06 10:01:00,
2013-02-06 10:32:00,24.0,22.0,-100.00,West,261,4.0,6.0,93,0.00,,,0.00,0.000000,,2013-02-06 10:32:00,
2013-02-06 10:42:00,24.0,22.0,-100.00,West,261,4.0,6.0,93,0.00,,,0.00,0.000000,,2013-02-06 10:42:00,
2013-02-06 10:52:00,24.0,22.0,-100.00,West,261,4.0,6.0,93,0.00,,,0.00,0.000000,,2013-02-06 10:52:00,
2013-02-06 11:02:00,24.0,22.0,-100.00,West,261,4.0,6.0,93,0.00,,,0.00,0.000000,,2013-02-06 11:02:00,
2013-02-06 11:33:00,25.0,23.0,-100.00,WSW,251,5.0,9.0,91,0.00,,,0.00,0.000000,,2013-02-06 11:33:00,
2013-02-06 11:42:00,25.0,23.0,-100.00,WSW,251,5.0,9.0,91,0.00,,,0.00,0.000000,,2013-02-06 11:42:00,
2013-02-06 11:53:00,25.0,23.0,-100.00,WSW,251,5.0,9.0,91,0.00,,,0.00,0.000000,,2013-02-06 11:53:00,
2013-02-06 12:02:00,25.0,23.0,-100.00,WSW,251,5.0,9.0,91,0.00,,,0.00,0.000000,,2013-02-06 12:02:00,
2013-02-06 12:32:00,24.0,22.0,-100.00,WSW,250,5.0,7.0,92,0.00,,,0.00,0.000000,,2013-02-06 12:32:00,
2013-02-06 12:42:00,24.0,22.0,-100.00,WSW,250,5.0,7.0,92,0.00,,,0.00,0.000000,,2013-02-06 12:42:00,
2013-02-06 12:52:00,24.0,22.0,-100.00,WSW,250,5.0,7.0,92,0.00,,,0.00,0.000000,,2013-02-06 12:52:00,
2013-02-06 13:02:00,24.0,22.0,-100.00,WSW,250,5.0,7.0,92,0.00,,,0.00,0.000000,,2013-02-06 13:02:00,
2013-02-06 13:32:00,27.0,24.0,-100.00,WSW,240,7.0,10.0,89,0.00,,,0.00,21.000000,,2013-02-06 13:32:00,
2013-02-06 13:42:00,27.0,24.0,-100.00,WSW,240,7.0,10.0,89,0.00,,,0.00,21.000000,,2013-02-06 13:42:00,
2013-02-06 13:52:00,27.0,24.0,-100.00,WSW,240,7.0,10.0,89,0.00,,,0.00,21.000000,,2013-02-06 13:52:00,
2013-02-06 14:02:00,27.0,24.0,-100.00,WSW,240,7.0,10.0,89,0.00,,,0.00,21.000000,,2013-02-06 14:02:00,
2013-02-06 14:32:00,32.0,25.0,-100.00,SW,218,6.0,12.0,76,0.01,,,0.01,98.000000,,2013-02-06 14:32:00,
2013-02-06 14:42:00,32.0,25.0,-100.00,SW,218,6.0,12.0,76,0.01,,,0.01,98.000000,,2013-02-06 14:42:00,
2013-02-06 14:52:00,32.0,25.0,-100.00,SW,218,6.0,12.0,76,0.01,,,0.01,98.000000,,2013-02-06 14:52:00,
2013-02-06 15:02:00,32.0,25.0,-100.00,SW,218,6.0,12.0,76,0.01,,,0.01,98.000000,,2013-02-06 15:02:00,
2013-02-06 15:32:00,32.0,24.0,-100.00,SW,236,8.0,14.0,72,0.02,,,0.03,170.000000,,2013-02-06 15:32:00,
2013-02-06 15:42:00,32.0,24.0,-100.00,SW,236,8.0,14.0,72,0.02,,,0.03,170.000000,,2013-02-06 15:42:00,
2013-02-06 15:52:00,32.0,24.0,-100.00,SW,236,8.0,14.0,72,0.02,,,0.03,170.000000,,2013-02-06 15:52:00,
2013-02-06 16:01:00,32.0,24.0,-100.00,SW,236,8.0,14.0,72,0.02,,,0.03,170.000000,,2013-02-06 16:01:00,
2013-02-06 16:32:00,34.0,23.0,-100.00,WSW,240,8.0,15.0,65,0.00,,,0.03,319.000000,,2013-02-06 16:32:00,
2013-02-06 16:42:00,34.0,23.0,-100.00,WSW,240,8.0,15.0,65,0.00,,,0.03,319.000000,,2013-02-06 16:42:00,
2013-02-06 16:52:00,34.0,23.0,-100.00,WSW,240,8.0,15.0,65,0.00,,,0.03,319.000000,,2013-02-06 16:52:00,
2013-02-06 17:02:00,34.0,23.0,-100.00,WSW,240,8.0,15.0,65,0.00,,,0.03,319.000000,,2013-02-06 17:02:00,
2013-02-06 17:32:00,35.0,22.0,-100.00,West,267,7.0,17.0,58,0.00,,,0.03,239.000000,,2013-02-06 17:32:00,
2013-02-06 17:42:00,35.0,22.0,-100.00,West,267,7.0,17.0,58,0.00,,,0.03,239.000000,,2013-02-06 17:42:00,
2013-02-06 17:52:00,35.0,22.0,-100.00,West,267,7.0,17.0,58,0.00,,,0.03,239.000000,,2013-02-06 17:52:00,
2013-02-06 18:02:00,35.0,22.0,-100.00,West,267,7.0,17.0,58,0.00,,,0.03,239.000000,,2013-02-06 18:02:00,
2013-02-06 18:33:00,37.0,21.0,-100.00,West,273,8.0,18.0,53,0.00,,,0.03,368.000000,,2013-02-06 18:33:00,
2013-02-06 18:42:00,37.0,21.0,-100.00,West,273,8.0,18.0,53,0.00,,,0.03,368.000000,,2013-02-06 18:42:00,
2013-02-06 18:52:00,37.0,21.0,-100.00,West,273,8.0,18.0,53,0.00,,,0.03,368.000000,,2013-02-06 18:52:00,
2013-02-06 19:02:00,37.0,21.0,-100.00,West,273,8.0,18.0,53,0.00,,,0.03,368.000000,,2013-02-06 19:02:00,
2013-02-06 19:32:00,39.0,16.0,-100.00,WNW,284,10.0,20.0,38,0.00,,,0.03,503.000000,,2013-02-06 19:32:00,
2013-02-06 19:42:00,39.0,16.0,-100.00,WNW,284,10.0,20.0,38,0.00,,,0.03,503.000000,,2013-02-06 19:42:00,
2013-02-06 19:52:00,39.0,16.0,-100.00,WNW,284,10.0,20.0,38,0.00,,,0.03,503.000000,,2013-02-06 19:52:00,
2013-02-06 20:01:00,39.0,16.0,-100.00,WNW,284,10.0,20.0,38,0.00,,,0.03,503.000000,,2013-02-06 20:01:00,
2013-02-06 20:32:00,38.0,12.0,-100.00,West,281,7.0,21.0,34,0.00,,,0.03,299.000000,,2013-02-06 20:32:00,
2013-02-06 20:42:00,38.0,12.0,-100.00,West,281,7.0,21.0,34,0.00,,,0.03,299.000000,,2013-02-06 20:42:00,
2013-02-06 20:52:00,38.0,12.0,-100.00,West,281,7.0,21.0,34,0.00,,,0.03,299.000000,,2013-02-06 20:52:00,
2013-02-06 21:02:00,38.0,12.0,-100.00,West,281,7.0,21.0,34,0.00,,,0.03,299.000000,,2013-02-06 21:02:00,
2013-02-06 21:32:00,38.0,13.0,-100.00,WNW,299,7.0,15.0,35,0.00,,,0.03,250.000000,,2013-02-06 21:32:00,
2013-02-06 21:42:00,38.0,13.0,-100.00,WNW,299,7.0,15.0,35,0.00,,,0.03,250.000000,,2013-02-06 21:42:00,
2013-02-06 21:52:00,38.0,13.0,-100.00,WNW,299,7.0,15.0,35,0.00,,,0.03,250.000000,,2013-02-06 21:52:00,
2013-02-06 22:01:00,38.0,13.0,-100.00,WNW,299,7.0,15.0,35,0.00,,,0.03,250.000000,,2013-02-06 22:01:00,
2013-02-06 22:32:00,35.0,9.0,-100.00,WNW,290,7.0,14.0,34,0.00,,,0.03,101.000000,,2013-02-06 22:32:00,
2013-02-06 22:42:00,35.0,9.0,-100.00,WNW,290,7.0,14.0,34,0.00,,,0.03,101.000000,,2013-02-06 22:42:00,
2013-02-06 22:52:00,35.0,9.0,-100.00,WNW,290,7.0,14.0,34,0.00,,,0.03,101.000000,,2013-02-06 22:52:00,
2013-02-06 23:01:00,35.0,9.0,-100.00,WNW,290,7.0,14.0,34,0.00,,,0.03,101.000000,,2013-02-06 23:01:00,
2013-02-06 23:32:00,32.0,7.0,-100.00,WNW,287,5.0,17.0,35,0.00,,,0.03,3.000000,,2013-02-06 23:32:00,
2013-02-06 23:42:00,32.0,7.0,-100.00,WNW,287,5.0,17.0,35,0.00,,,0.03,3.000000,,2013-02-06 23:42:00,
2013-02-06 23:52:00,32.0,7.0,-100.00,WNW,287,5.0,17.0,35,0.00,,,0.03,3.000000,,2013-02-06 23:52:00,